Preview of NWS' New Version of Forecast
This preview is not operational and should not be used for support decisions.
Latest weather observations around

Bowling Green, Bowling Green-Warren County Regional Airport (KBWG)

Using International System of Units (Switch to English Units)
Date/ Time (CDT) Wind (kph) Vis. (km) Weather Sky Cond. Temp (°C) Rel. Humidity Wind Chill (°C) Heat Index (°C) Pressure Precip. (cm)
Air Dwpt 6 hour Altimeter (hPa) Sea level (hPa) 1 hr 3 hr 6 hr
Max Min
Aug 25 23:53 SSE 11 12.87 Rain FEW012 BKN037 OVC060 23 21     87%   24 1014.9 1014.2 0    
Aug 25 23:42 S 13 16.09 Light Rain SCT012 BKN036 OVC060 23 21     85%   24 1014.9   0    
Aug 25 22:53 S 15 16.09 Light Rain BKN010 BKN021 OVC065 24 22     88%   25 1015.2 1014.6 0    
Aug 25 22:03 SSE 13 16.09 Cloudy BKN008 BKN055 OVC100 24 22     88%   25 1015.2   0    
Aug 25 21:53 SE 13 16.09 Cloudy FEW010 BKN070 OVC100 24 22     88%   25 1015.2 1014.6 0 0  
Aug 25 20:53 SE 9 16.09 Mostly Cloudy FEW030 BKN100 24 22     90%   25 1014.9 1014.5 0    
Aug 25 19:53 SE 8 11.27 Light Rain FEW005 BKN110 24 22     88%   25 1014.9 1014.4 0    
Aug 25 19:14 SE 9 11.27 Light Rain FEW008 SCT090 BKN110 24 23     91%   25 1014.9   0    
Aug 25 18:53 ESE 8 9.66 Light Rain and Fog/Mist FEW120 24 23     91%   25 1014.6 1013.9 0   0
Aug 25 17:53 S 5 14.48 Light Rain SCT110 25 23     88%   26 1014.6 1013.9 0    
Aug 25 17:12 SSW 11 9.66 Rain and Fog/Mist BKN110 25 23     88%   26 1014.9   0    
Aug 25 16:53 S 13 9.66 Rain BKN110 26 23     85%   26 1014.9 1014.4 0    
Aug 25 16:46 S 9 11.27 Light Rain SCT100 BKN120 26 23     85%   26 1014.9   0    
Aug 25 15:53 SSE 13 16.09 Mostly Clear FEW030 FEW045 28 22     69%   30 1014.2 1013.8      
Aug 25 15:26 8 16.09 Mostly Cloudy FEW035 BKN045 BKN120 28 22     70%   31 1014.6        
Aug 25 15:11 SE 5 16.09 Mostly Cloudy FEW025 BKN043 BKN050 28 22     67%   31 1014.2        
Aug 25 14:53 ESE 9 16.09 Mostly Cloudy SCT025 BKN041 BKN055 28 22     72%   30 1014.6 1013.9      
Aug 25 14:48 ESE 9 16.09 Cloudy BKN025 BKN041 OVC050 28 22     70%   31 1014.6        
Aug 25 14:20 SE 11 16.09 Cloudy SCT027 BKN033 OVC050 28 22     67%   31 1014.9        
Aug 25 13:53 SSE 9 16.09 Cloudy BKN028 BKN035 OVC045 28 22     67%   31 1015.6 1014.8      
Aug 25 12:53 S 11 16.09 Cloudy BKN024 OVC039 28 22     67%   31 1015.9 1015.4      
Aug 25 12:31 S 11 16.09 Mostly Cloudy SCT024 BKN038 28 22     67%   31 1016.3        
Aug 25 11:53   16.09 Cloudy OVC022 28 22     69%   30 1016.3 1015.6      
Aug 25 11:09 9 16.09 Mostly Cloudy BKN020 27 21     69%   29 1016.6        
Aug 25 10:53 5 16.09 Mostly Clear FEW019 26 20     69%   27 1016.9 1016.2      
Aug 25 09:53 E 8 16.09 Cloudy OVC030 24 18     71%   24 1017.3 1016.6      
Aug 25 08:53 E 5 16.09 Cloudy FEW023 OVC031 22 17     73%   22 1017.3 1016.8      
Aug 25 08:32 E 5 16.09 Cloudy FEW024 OVC030 21 16     73%     1017.6        
Aug 25 07:53 E 8 16.09 Mostly Cloudy BKN029 BKN044 21 16     73%     1017.3 1016.9      
Aug 25 06:53 E 8 16.09 Clear CLR 20 15     73%     1016.9 1016.4      
Aug 25 05:53 NE 5 16.09 Clear CLR 19 15     76%     1016.6 1016.1      
Aug 25 04:53 ENE 5 16.09 Mostly Clear FEW035 19 14     73%     1016.6 1015.8      
Aug 25 03:53 NE 5 16.09 Clear CLR 20 14     70%     1016.6 1016      
Aug 25 02:53 NE 8 16.09 Clear CLR 20 14     70%     1016.9 1016.3      
Aug 25 01:53 Calm 16.09 Clear CLR 20 14     70%     1017.6 1016.9      
Aug 25 00:53 NE 5 16.09 Clear CLR 20 14     70%     1018 1017.4      
Aug 24 23:53 NE 5 16.09 Clear CLR 21 14     68%     1018.6 1018      
Aug 24 22:53 ENE 11 16.09 Clear CLR 22 14     61%   22 1018.6 1018.1      
Aug 24 21:53 NE 13 16.09 Clear CLR 22 14     59%   22 1018.6 1018      
Aug 24 20:53 NE 11 16.09 Clear CLR 24 15     57%   24 1018.6 1017.9      
Aug 24 19:53 NE 11 16.09 Clear CLR 25 16     56%   25 1018 1017.6      
Aug 24 18:53 ENE 11 16.09 Clear CLR 27 16     52%   27 1017.6 1016.9      
Aug 24 17:53 ENE 15 16.09 Clear CLR 28 17     51%   28 1017.6 1016.8      
Aug 24 16:53 NE 21 16.09 Clear CLR 28 17     49%   29 1017.3 1016.8      
Aug 24 15:53 NE 13 16.09 Clear CLR 29 17     48%   29 1017.6 1016.9      
Aug 24 14:53 NE 17 16.09 Mostly Clear FEW048 29 17     48%   29 1018.3 1017.7      
Aug 24 13:53 NE 21 16.09 Clear CLR 28 17     51%   29 1019 1018.2      
Aug 24 12:53 ENE 21 16.09 Clear CLR 28 17     53%   28 1019.3 1018.8      
Aug 24 11:53 E 13 16.09 Clear CLR 26 16     54%   26 1020 1019.3      
Aug 24 10:53 E 18 16.09 Clear CLR 25 16     56%   25 1020.3 1019.7      
Aug 24 09:53 ENE 21 16.09 Clear CLR 23 14     59%   23 1020.3 1019.9      
Aug 24 08:53 ENE 18 16.09 Clear CLR 23 15     61%   23 1020.3 1019.8      
Aug 24 07:53 NE 15 16.09 Clear CLR 21 15     70%     1020.3 1019.8      
Aug 24 06:53 NNE 13 16.09 Clear CLR 19 16     79%     1020 1019.4      
Aug 24 05:53 NE 9 16.09 Clear CLR 19 16     79%     1019.7 1019.2      
Aug 24 04:53 NNE 11 16.09 Clear CLR 20 16     76%     1019.3 1018.7      
Aug 24 03:53 NE 11 16.09 Clear CLR 20 15     73%     1019.3 1018.6      
Aug 24 02:53 NE 11 16.09 Clear CLR 20 15     73%     1019 1018.2      
Aug 24 02:26 NE 13 16.09 Partly Cloudy SCT028 21 15     70%     1019        
Aug 24 02:09 NE 13 16.09 Mostly Cloudy BKN028 21 15     70%     1019        
Aug 24 01:53 NE 11 16.09 Partly Cloudy SCT029 SCT041 21 15     70%     1019 1018.4      
Aug 24 01:14 NE 13 16.09 Partly Cloudy SCT027 21 14     68%     1019        
Aug 24 00:53 NE 11 16.09 Mostly Cloudy BKN027 21 14     68%     1019.3 1018.9      
Aug 24 00:48 ENE 11 16.09 Mostly Cloudy BKN027 21 14     64%     1019.3        
Aug 23 23:53 NE 13 16.09 Mostly Clear FEW026 21 14     68%     1019.3 1018.6      
Aug 23 22:53 NNE 13 16.09 Mostly Clear FEW065 21 15     68%     1019.3 1018.7      
Aug 23 21:53 NE 15 16.09 Mostly Cloudy BKN032 21 17     78%     1019 1018.5      
Aug 23 20:53 NE 13 16.09 Clear CLR 22 18     79%   22 1018.3 1017.6      
Aug 23 20:30 NE 17 16.09 Partly Cloudy SCT018 22 18     79%   22 1017.6        
Aug 23 19:53 NNE 15 16.09 Cloudy OVC017 23 18     74%   24 1017.6 1017.1      
Aug 23 18:53 NNE 15 16.09 Mostly Cloudy BKN017 24 19     74%   24 1017.6 1017.1      
Aug 23 18:33 NNE 18 16.09 Cloudy OVC015 24 19     76%   24 1017.6        
Aug 23 17:53 NNE 17 16.09 Cloudy OVC014 24 20     76%   25 1017.3 1016.7      
Aug 23 17:38 NNE 17 16.09 Cloudy BKN014 OVC055 24 20     76%   25 1017.3        
Aug 23 16:53 NE 15 16.09 Partly Cloudy FEW038 SCT055 26 21     74%   26 1016.9 1016.2      
Aug 23 15:53 N 17 16.09 Mostly Cloudy FEW038 BKN110 26 21     72%   27 1016.9 1016.2      
Aug 23 14:53 5 16.09 Mostly Cloudy FEW031 SCT042 BKN085 30 21     59%   33 1016.9 1016.1      
Aug 23 13:53 5 16.09 Clear CLR 29 21     61%   32 1017.3 1016.4      
Aug 23 12:53 Calm 16.09 Mostly Cloudy SCT029 SCT035 BKN120 27 21     67%   29 1017.6 1016.9     0
Aug 23 11:53 8 16.09 Mostly Cloudy FEW018 BKN033 28 21     67%   30 1017.6 1017.1      
Aug 23 11:45 5 16.09 Mostly Cloudy SCT018 BKN032 27 21     67%   29 1018        
Aug 23 11:29 ESE 5 16.09 Mostly Cloudy BKN018 27 21     69%   28 1018        
Aug 23 10:53 SE 5 16.09 Partly Cloudy FEW026 SCT055 SCT070 26 21     74%   28 1018.3 1017.5 0    
Aug 23 09:53 Calm 16.09 Clear CLR 26 21     74%   26 1018 1017.2      
Aug 23 08:53 Calm 16.09 Mostly Cloudy BKN060 BKN070 24 21     79%   25 1018 1017.4      
Aug 23 07:53 N 5 16.09 Mostly Clear FEW055 24 21     82%   24 1018 1017.2      
Aug 23 07:28 Calm 16.09 Mostly Clear FEW005 FEW100 23 21     85%   24 1017.6        
Aug 23 06:53 Calm 16.09 Mostly Cloudy BKN060 23 21     87%   23 1017.6 1016.9      
Aug 23 05:53 W 9 16.09 Cloudy BKN040 BKN055 OVC120 23 21     87%   23 1017.3 1016.6      
Aug 23 04:53 Calm 16.09 Mostly Cloudy FEW032 BKN048 22 21     91%   23 1016.6 1015.7      
Aug 23 03:53 Calm 16.09 Mostly Clear FEW047 22 21     91%   23 1015.9 1015.2      
Aug 23 03:33 S 8 16.09 Mostly Cloudy FEW003 SCT033 BKN047 22 21     91%   23 1015.9        
Aug 23 02:53 SSW 8 16.09 Mostly Clear FEW050 23 21     87%   23 1015.9 1015.3      
Aug 23 01:53 Calm 16.09 Partly Cloudy FEW045 SCT110 23 20     84%   23 1015.9 1015.3      
Aug 23 00:53 W 8 16.09 Clear CLR 23 21     87%   23 1016.3 1015.6      
Aug 23 00:01 WSW 8 16.09 Partly Cloudy FEW009 SCT025 23 21     85%   24 1016.3        
Aug 22 23:53 WSW 9 16.09 Mostly Cloudy FEW009 BKN025 23 21     85%   24 1016.3 1015.4      
Aug 22 23:30 W 8 16.09 Mostly Cloudy FEW009 BKN024 24 21     84%   25 1015.9        
Aug 22 22:53 W 5 16.09 Mostly Cloudy FEW014 SCT019 BKN025 23 21     87%   24 1015.9 1015.2      
May 15 02:53 SSW 5 16.09 Clear CLR 23 19     79%   24 1013.2 1012.6      
May 14 10:53 N 8 16.09 Clear CLR 31 21     55%   33 1017.6 1016.8      
May 11 21:53 S 13 16.09 Clear CLR 25 16     58%   25 1015.6 1015      
Jun 11 22:53 Calm 16.09 Clear CLR 25 18     66%   25 1018.6 1017.9      
Jun 11 09:53 S 13 16.09 Mostly Clear FEW060 28 19     59%   30 1021 1020.5      
Jun 11 08:53 S 13 16.09 Clear CLR 26 18     62%   26 1021.3 1020.6      
Jun 10 21:53 SSE 8 16.09 Clear CLR 22 16     68%   22 1017.6 1017      
Jun 10 11:53 S 21 16.09 Mostly Clear FEW055 28 15     44%   28 1018.3 1017.6      
Jun 09 15:53 11 16.09 Clear CLR 27 12     41%   26 1014.2 1013.7      
Jun 09 02:53 Calm 16.09 Clear   12 12     97%     1013.9 1013.5      
Jun 07 07:53 NE 15 16.09 Clear CLR 18 13     73%     1015.2 1014.6      
Jun 06 04:51 Calm 0.8 Fog VV002 18 18     100%     1010.2        
Jun 06 04:27 Calm 1.21 Fog/Mist OVC002 18 18     100%     1009.8        
Jun 05 13:53 Calm 16.09 Cloudy BKN014 OVC021 24 21     84%   25 1009.5 1008.9